Regional Weather Roundup
Issued by NWS

Current Version | Previous Version | Text Only | Print | Product List | Glossary On
Versions: 1 2 3 4 5 6 7 8 9 10 11 12 13 14 15 16 17 18 19 20 21 22 23 24 25 26 27 28 29 30 31 32 33 34 35 36 37 38 39 40 41 42 43 44 45 46 47 48 49 50
000
ASUS44 KMEG 212110
RWRTN
TENNESSEE HOURLY STATE WEATHER ROUNDUP
NATIONAL WEATHER SERVICE MEMPHIS TN
300 PM CST TUE FEB 21 2017

TNZ002-004-019-021-049-052-054-088>092-212200-
WEST TENNESSEE

CITY           SKY/WX    TMP DP  RH WIND       PRES   REMARKS
MEMPHIS INTL   CLOUDY    65  58  78 SE7       29.84S
NWS MEMPHIS      N/A     65 N/A N/A MISG        N/A
JACKSON        CLOUDY    63  59  87 S7        29.88R
UNION CITY     CLOUDY    63  63 100 CALM      29.87F
PARIS          CLOUDY    63  57  82 CALM      29.89S
HUNTINGDON     CLOUDY    66  57  72 CALM      29.87S
$$

TNZ008-025-027-028-033-062-065-066-212200-
NORTH MIDDLE TENNESSEE

CITY           SKY/WX    TMP DP  RH WIND       PRES   REMARKS
NASHVILLE      CLOUDY    68  52  56 S16G30    29.91F
PORTLAND       PTSUNNY   68  54  60 S18G26    29.93R
CLARKSVILLE    CLOUDY    71  52  50 S6        29.88F
SMYRNA         CLOUDY    65  55  70 S13       29.93S
COOKEVILLE     CLOUDY    66  48  52 S10       29.96R
GALLATIN       CLOUDY    70  54  56 S12G17    29.95S
CROSSVILLE     CLOUDY    62  47  57 S5        30.00F
$$

TNZ061-075-076-078-094-096-097-212200-
SOUTH MIDDLE TENNESSEE

CITY           SKY/WX    TMP DP  RH WIND       PRES   REMARKS
FAYETTEVILLE   CLOUDY    59  55  88 SE16G26   29.95S
TULLAHOMA      CLOUDY    61  54  77 SE8       29.97R
WINCHESTER     CLOUDY    59  55  88 SE14      29.98S
MCMINNVILLE    CLOUDY    63  54  72 SE10      29.97R
COLUMBIA       PTSUNNY   64  63  94 S14       29.91R
SHELBYVILLE    CLOUDY    64  55  72 SE16      29.95R
$$

TNZ017-018-042-046-047-212200-
NORTHEAST TENNESSEE

CITY           SKY/WX    TMP DP  RH WIND       PRES   REMARKS
TRI CITIES     PTSUNNY   67  44  43 SE9       30.03F
ELIZABETHTON   SUNNY     66  45  45 VRB6      30.03F
$$

TNZ012-013-036-069-073-074-212200-
CENTRAL EAST TENNESSEE

CITY           SKY/WX    TMP DP  RH WIND       PRES   REMARKS
KNOXVILLE      CLOUDY    68  47  46 S10       29.98R
OAK RIDGE      CLOUDY    71  44  37 S5        29.99F
GATLINBURG     SUNNY     72  43  35 S6        29.98S
MORRISTOWN     MOSUNNY   70  45  40 E10       29.99S
JACKSBORO      MOSUNNY   70  46  43 S5        30.02R
$$

TNZ083-085-099-212200-
SOUTHEAST TENNESSEE

CITY           SKY/WX    TMP DP  RH WIND       PRES   REMARKS
CHATTANOOGA    LGT RAIN  64  50  60 SW7       30.00R
$$

SKY/WX REPORTED AS FAIR MEANS FEW OR NO CLOUDS BELOW
12 THOUSAND FEET.





USA.gov is the U.S. government's official web portal to all federal, state and local government web resources and services.